EIN26KA EIDW-EGPH

Flight info

Callsign EIN26KA
Flight time 0h 58m
Altitude 23000
Route ROTEV3J ROTEV P600 TUNSO
Aircraft A21N/M-SDE2E3FGHIRWXY/LB1

Departure

Time 2026-05-07 22:25
Airport Dublin Airport (EIDW)

Arrival

Time 2026-05-07 23:23
Airport Edinburgh Airport (EGPH)
Time Latitude Longitude Altitude Speed Heading
2026-05-07 22:05 53.42306 -6.24631 214 ft 0 kts 135°
2026-05-07 22:10 53.42307 -6.24634 214 ft 2 kts 135°
2026-05-07 22:10 53.42325 -6.24664 222 ft 2 kts 135°
2026-05-07 22:11 53.42342 -6.24689 221 ft 4 kts 143°
2026-05-07 22:11 53.42365 -6.24712 214 ft 4 kts 158°
2026-05-07 22:11 53.42390 -6.24726 216 ft 4 kts 168°
2026-05-07 22:11 53.42414 -6.24736 220 ft 1 kts 158°
2026-05-07 22:12 53.42436 -6.24751 216 ft 4 kts 158°
2026-05-07 22:12 53.42461 -6.24768 219 ft 4 kts 157°
2026-05-07 22:12 53.42474 -6.24777 217 ft 1 kts 157°
2026-05-07 22:16 53.42450 -6.24760 222 ft 7 kts 157°
2026-05-07 22:17 53.42403 -6.24738 218 ft 7 kts 180°
2026-05-07 22:17 53.42364 -6.24776 217 ft 6 kts 235°
2026-05-07 22:17 53.42364 -6.24844 217 ft 6 kts 296°
2026-05-07 22:17 53.42405 -6.24892 216 ft 10 kts 334°
2026-05-07 22:18 53.42471 -6.24941 219 ft 12 kts 336°
2026-05-07 22:18 53.42638 -6.25060 216 ft 14 kts 337°
2026-05-07 22:18 53.42712 -6.25145 217 ft 12 kts 304°
2026-05-07 22:19 53.42774 -6.25227 218 ft 11 kts 336°
2026-05-07 22:19 53.42847 -6.25281 221 ft 11 kts 336°
2026-05-07 22:19 53.42922 -6.25335 220 ft 13 kts 336°
2026-05-07 22:19 53.43018 -6.25405 218 ft 18 kts 336°
2026-05-07 22:20 53.43132 -6.25487 219 ft 18 kts 336°
2026-05-07 22:20 53.43246 -6.25571 214 ft 18 kts 336°
2026-05-07 22:20 53.43335 -6.25638 219 ft 14 kts 336°
2026-05-07 22:20 53.43412 -6.25602 214 ft 8 kts 74°
2026-05-07 22:21 53.43405 -6.25485 214 ft 12 kts 96°
2026-05-07 22:21 53.43396 -6.25342 216 ft 13 kts 96°
2026-05-07 22:21 53.43386 -6.25171 221 ft 15 kts 96°
2026-05-07 22:21 53.43376 -6.24997 219 ft 15 kts 95°
2026-05-07 22:22 53.43368 -6.24832 217 ft 13 kts 95°
2026-05-07 22:22 53.43364 -6.24764 220 ft 0 kts 95°
2026-05-07 22:22 53.43364 -6.24759 220 ft 3 kts 95°
2026-05-07 22:22 53.43360 -6.24681 221 ft 9 kts 95°
2026-05-07 22:23 53.43382 -6.24576 221 ft 11 kts 32°
2026-05-07 22:23 53.43465 -6.24554 219 ft 13 kts
2026-05-07 22:23 53.43521 -6.24593 225 ft 8 kts 298°
2026-05-07 22:23 53.43527 -6.24638 220 ft 0 kts 277°
2026-05-07 22:24 53.43548 -6.24979 215 ft 62 kts 274°
2026-05-07 22:24 53.43606 -6.26061 220 ft 126 kts 275°
2026-05-07 22:25 53.43691 -6.27852 251 ft 174 kts 271°
2026-05-07 22:25 53.43750 -6.29856 847 ft 168 kts 270°
2026-05-07 22:25 53.44060 -6.31721 1559 ft 170 kts 305°
2026-05-07 22:25 53.44904 -6.33110 2219 ft 178 kts 315°
2026-05-07 22:26 53.45941 -6.34520 2434 ft 211 kts 325°
2026-05-07 22:26 53.47409 -6.35304 2966 ft 232 kts 354°
2026-05-07 22:26 53.49040 -6.35287 3833 ft 235 kts
2026-05-07 22:26 53.50682 -6.35134 4661 ft 238 kts
2026-05-07 22:27 53.52360 -6.34955 5388 ft 245 kts
2026-05-07 22:27 53.54093 -6.34580 5934 ft 262 kts
2026-05-07 22:27 53.55948 -6.34098 6505 ft 275 kts
2026-05-07 22:27 53.57855 -6.33592 7288 ft 280 kts
2026-05-07 22:28 53.59799 -6.33081 8085 ft 286 kts
2026-05-07 22:28 53.61781 -6.32565 8699 ft 289 kts
2026-05-07 22:28 53.63778 -6.32049 8949 ft 291 kts
2026-05-07 22:28 53.65789 -6.31523 9026 ft 293 kts
2026-05-07 22:29 53.67794 -6.30768 9572 ft 298 kts 13°
2026-05-07 22:29 53.69816 -6.29875 10383 ft 305 kts 14°
2026-05-07 22:29 53.71917 -6.28927 10737 ft 327 kts 14°
2026-05-07 22:29 53.74193 -6.27894 11036 ft 350 kts 14°
2026-05-07 22:30 53.76574 -6.26504 11391 ft 370 kts 21°
2026-05-07 22:30 53.78969 -6.24761 12045 ft 379 kts 22°
2026-05-07 22:30 53.81399 -6.22926 12836 ft 385 kts 22°
2026-05-07 22:30 53.83863 -6.21057 13584 ft 391 kts 22°
2026-05-07 22:31 53.86374 -6.19155 14211 ft 399 kts 22°
2026-05-07 22:31 53.88929 -6.17221 14888 ft 403 kts 22°
2026-05-07 22:31 53.91484 -6.15286 15572 ft 407 kts 22°
2026-05-07 22:31 53.94085 -6.13315 16230 ft 412 kts 22°
2026-05-07 22:32 53.96721 -6.11316 16889 ft 416 kts 22°
2026-05-07 22:32 53.99382 -6.09296 17545 ft 421 kts 22°
2026-05-07 22:32 54.02069 -6.07253 18167 ft 425 kts 22°
2026-05-07 22:32 54.04773 -6.05140 18709 ft 429 kts 23°
2026-05-07 22:33 54.07481 -6.02955 19253 ft 433 kts 24°
2026-05-07 22:33 54.10184 -6.00739 19813 ft 437 kts 24°
2026-05-07 22:33 54.12938 -5.98466 20328 ft 441 kts 24°
2026-05-07 22:33 54.15715 -5.96172 20874 ft 445 kts 24°
2026-05-07 22:34 54.18510 -5.93865 21427 ft 448 kts 24°
2026-05-07 22:34 54.21333 -5.91537 21979 ft 450 kts 24°
2026-05-07 22:34 54.24169 -5.89198 22427 ft 455 kts 24°
2026-05-07 22:34 54.27036 -5.86833 22847 ft 459 kts 24°
2026-05-07 22:35 54.29905 -5.84463 22971 ft 458 kts 24°
2026-05-07 22:35 54.32754 -5.82106 22968 ft 459 kts 24°
2026-05-07 22:35 54.35630 -5.79723 22965 ft 460 kts 24°
2026-05-07 22:35 54.38509 -5.77335 22970 ft 460 kts 24°
2026-05-07 22:36 54.41396 -5.74935 22967 ft 461 kts 24°
2026-05-07 22:36 54.44286 -5.72530 22966 ft 461 kts 24°
2026-05-07 22:36 54.47178 -5.70118 22966 ft 461 kts 24°
2026-05-07 22:36 54.50072 -5.67702 22965 ft 461 kts 24°
2026-05-07 22:37 54.52960 -5.65287 22966 ft 461 kts 24°
2026-05-07 22:37 54.55817 -5.62893 22966 ft 461 kts 24°
2026-05-07 22:37 54.58645 -5.60285 22964 ft 462 kts 32°
2026-05-07 22:37 54.61241 -5.57001 22967 ft 462 kts 37°
2026-05-07 22:38 54.63740 -5.53515 22974 ft 463 kts 39°
2026-05-07 22:38 54.66195 -5.49889 22963 ft 464 kts 41°
2026-05-07 22:38 54.68616 -5.46202 22963 ft 464 kts 41°
2026-05-07 22:38 54.71026 -5.42490 22963 ft 464 kts 41°
2026-05-07 22:39 54.73427 -5.38783 22706 ft 459 kts 41°
2026-05-07 22:39 54.75805 -5.35121 22433 ft 456 kts 41°
2026-05-07 22:39 54.78174 -5.31483 22162 ft 454 kts 41°
2026-05-07 22:39 54.80539 -5.27857 21893 ft 453 kts 41°
2026-05-07 22:40 54.82897 -5.24244 21627 ft 451 kts 41°
2026-05-07 22:40 54.85210 -5.20699 21363 ft 449 kts 41°
2026-05-07 22:40 54.87615 -5.17217 21099 ft 447 kts 33°
2026-05-07 22:40 54.90274 -5.14452 20833 ft 442 kts 27°
2026-05-07 22:41 54.92973 -5.11980 20301 ft 435 kts 25°
2026-05-07 22:41 54.94758 -5.10400 19915 ft 433 kts 25°
2026-05-07 22:41 54.97435 -5.08058 19335 ft 428 kts 25°
2026-05-07 22:41 55.00092 -5.05745 18761 ft 425 kts 25°
2026-05-07 22:42 55.02725 -5.03455 18181 ft 421 kts 25°
2026-05-07 22:42 55.05346 -5.01175 17558 ft 417 kts 25°
2026-05-07 22:42 55.07936 -4.98901 17092 ft 415 kts 26°
2026-05-07 22:42 55.10308 -4.96089 16771 ft 418 kts 43°
2026-05-07 22:43 55.12081 -4.92098 16516 ft 416 kts 62°
2026-05-07 22:43 55.13336 -4.87568 16301 ft 414 kts 67°
2026-05-07 22:43 55.14476 -4.82951 16084 ft 412 kts 68°
2026-05-07 22:43 55.15598 -4.78341 15850 ft 411 kts 68°
2026-05-07 22:44 55.16720 -4.73749 15615 ft 409 kts 68°
2026-05-07 22:44 55.17839 -4.69183 15416 ft 408 kts 68°
2026-05-07 22:44 55.18960 -4.64619 15181 ft 407 kts 68°
2026-05-07 22:44 55.20077 -4.60071 14946 ft 406 kts 68°
2026-05-07 22:45 55.21191 -4.55536 14736 ft 404 kts 68°
2026-05-07 22:45 55.22297 -4.51021 14510 ft 403 kts 68°
2026-05-07 22:45 55.23389 -4.46562 14279 ft 401 kts 68°
2026-05-07 22:45 55.24486 -4.42068 14075 ft 400 kts 68°
2026-05-07 22:46 55.25583 -4.37575 13846 ft 397 kts 68°
2026-05-07 22:46 55.26662 -4.33140 13623 ft 394 kts 69°
2026-05-07 22:46 55.27733 -4.28726 13401 ft 393 kts 69°
2026-05-07 22:46 55.28800 -4.24322 13173 ft 391 kts 69°
2026-05-07 22:47 55.29862 -4.19930 12969 ft 390 kts 69°
2026-05-07 22:47 55.30906 -4.15605 12751 ft 388 kts 69°
2026-05-07 22:47 55.31958 -4.11240 12554 ft 387 kts 69°
2026-05-07 22:47 55.33004 -4.06889 12324 ft 386 kts 69°
2026-05-07 22:48 55.34044 -4.02552 12126 ft 385 kts 69°
2026-05-07 22:48 55.35079 -3.98230 11920 ft 383 kts 69°
2026-05-07 22:48 55.36109 -3.93922 11703 ft 382 kts 69°
2026-05-07 22:48 55.37133 -3.89627 11503 ft 380 kts 69°
2026-05-07 22:49 55.38153 -3.85343 11278 ft 379 kts 68°
2026-05-07 22:49 55.39165 -3.81079 11083 ft 377 kts 68°
2026-05-07 22:49 55.40175 -3.76820 10878 ft 373 kts 68°
2026-05-07 22:49 55.41153 -3.72687 10738 ft 357 kts 68°
2026-05-07 22:50 55.42078 -3.68773 10542 ft 343 kts 68°
2026-05-07 22:50 55.42972 -3.64981 10353 ft 329 kts 68°
2026-05-07 22:50 55.43832 -3.61324 10183 ft 316 kts 68°
2026-05-07 22:50 55.44657 -3.57816 10013 ft 305 kts 68°
2026-05-07 22:51 55.45461 -3.54382 9825 ft 303 kts 68°
2026-05-07 22:51 55.46265 -3.50952 9630 ft 303 kts 69°
2026-05-07 22:51 55.47069 -3.47512 9476 ft 303 kts 69°
2026-05-07 22:51 55.47871 -3.44079 9332 ft 303 kts 69°
2026-05-07 22:52 55.48672 -3.40640 9131 ft 303 kts 69°
2026-05-07 22:52 55.49527 -3.37249 8965 ft 303 kts 60°
2026-05-07 22:52 55.50887 -3.34464 8816 ft 301 kts 36°
2026-05-07 22:52 55.52649 -3.32489 8660 ft 299 kts 28°
2026-05-07 22:53 55.54446 -3.30743 8488 ft 297 kts 27°
2026-05-07 22:53 55.56258 -3.29010 8326 ft 296 kts 27°
2026-05-07 22:53 55.58069 -3.27266 8163 ft 296 kts 27°
2026-05-07 22:53 55.59877 -3.25511 7999 ft 296 kts 27°
2026-05-07 22:54 55.61673 -3.23758 7844 ft 295 kts 27°
2026-05-07 22:54 55.63469 -3.21997 7681 ft 294 kts 28°
2026-05-07 22:54 55.65255 -3.20242 7512 ft 294 kts 28°
2026-05-07 22:54 55.67044 -3.18480 7345 ft 294 kts 28°
2026-05-07 22:55 55.68811 -3.16737 7200 ft 285 kts 28°
2026-05-07 22:55 55.70508 -3.15062 7061 ft 273 kts 27°
2026-05-07 22:55 55.72242 -3.13811 6878 ft 268 kts 11°
2026-05-07 22:55 55.74044 -3.13203 6601 ft 266 kts
2026-05-07 22:56 55.75888 -3.12748 6363 ft 268 kts
2026-05-07 22:56 55.77727 -3.12310 6084 ft 265 kts
2026-05-07 22:56 55.79545 -3.11869 5731 ft 262 kts
2026-05-07 22:56 55.81347 -3.11428 5309 ft 262 kts
2026-05-07 22:57 55.83151 -3.10980 4907 ft 261 kts
2026-05-07 22:57 55.84942 -3.10532 4480 ft 260 kts
2026-05-07 22:57 55.86705 -3.10089 4265 ft 249 kts
2026-05-07 22:57 55.88367 -3.09666 4154 ft 235 kts
2026-05-07 22:58 55.89984 -3.09258 4030 ft 235 kts
2026-05-07 22:58 55.91600 -3.08852 3903 ft 234 kts
2026-05-07 22:58 55.93207 -3.08447 3773 ft 233 kts
2026-05-07 22:58 55.94814 -3.08042 3648 ft 233 kts
2026-05-07 22:59 55.96415 -3.07637 3530 ft 233 kts
2026-05-07 22:59 55.98019 -3.07231 3426 ft 232 kts
2026-05-07 22:59 55.99615 -3.06826 3308 ft 231 kts
2026-05-07 22:59 56.01207 -3.06437 3127 ft 231 kts
2026-05-07 23:00 56.02696 -3.06792 3002 ft 204 kts 327°
2026-05-07 23:00 56.03515 -3.08406 2982 ft 158 kts 276°
2026-05-07 23:00 56.03514 -3.10219 3009 ft 146 kts 257°
2026-05-07 23:00 56.03285 -3.11989 2992 ft 146 kts 250°
2026-05-07 23:01 56.02916 -3.13677 2994 ft 146 kts 242°
2026-05-07 23:01 56.02452 -3.15212 2889 ft 135 kts 239°
2026-05-07 23:01 56.01984 -3.16636 2697 ft 131 kts 237°
2026-05-07 23:01 56.01510 -3.18033 2507 ft 132 kts 236°
2026-05-07 23:02 56.01039 -3.19431 2320 ft 132 kts 236°
2026-05-07 23:02 56.00565 -3.20834 2137 ft 131 kts 236°
2026-05-07 23:02 56.00093 -3.22230 1950 ft 131 kts 236°
2026-05-07 23:02 55.99622 -3.23623 1781 ft 131 kts 235°
2026-05-07 23:03 55.99151 -3.25011 1596 ft 130 kts 234°
2026-05-07 23:03 55.98690 -3.26372 1420 ft 130 kts 234°
2026-05-07 23:03 55.98221 -3.27754 1243 ft 129 kts 235°
2026-05-07 23:03 55.97754 -3.29130 1047 ft 129 kts 236°
2026-05-07 23:04 55.97291 -3.30487 845 ft 126 kts 234°
2026-05-07 23:04 55.96816 -3.31810 654 ft 127 kts 236°
2026-05-07 23:04 55.96399 -3.33170 543 ft 123 kts 234°
2026-05-07 23:04 55.95954 -3.34493 454 ft 143 kts 234°
2026-05-07 23:05 55.95344 -3.36130 805 ft 167 kts 234°
2026-05-07 23:05 55.94759 -3.37861 1656 ft 162 kts 235°
2026-05-07 23:05 55.94167 -3.39625 2302 ft 169 kts 237°
2026-05-07 23:05 55.93578 -3.41465 2961 ft 172 kts 239°
2026-05-07 23:06 55.93022 -3.43348 3646 ft 179 kts 241°
2026-05-07 23:06 55.92452 -3.45470 4222 ft 201 kts 244°
2026-05-07 23:06 55.91872 -3.47870 4920 ft 220 kts 243°
2026-05-07 23:06 55.90913 -3.50127 5511 ft 236 kts 217°
2026-05-07 23:07 55.89379 -3.51368 5699 ft 250 kts 195°
2026-05-07 23:07 55.87639 -3.51845 5258 ft 254 kts 188°
2026-05-07 23:07 55.85904 -3.51913 5036 ft 246 kts 176°
2026-05-07 23:07 55.84269 -3.51250 4848 ft 239 kts 160°
2026-05-07 23:08 55.82972 -3.49442 4566 ft 242 kts 130°
2026-05-07 23:08 55.82350 -3.46647 4149 ft 250 kts 99°
2026-05-07 23:08 55.82588 -3.43579 3746 ft 256 kts 70°
2026-05-07 23:08 55.83395 -3.40748 3368 ft 256 kts 61°
2026-05-07 23:09 55.84308 -3.38058 3286 ft 259 kts 59°
2026-05-07 23:09 55.85263 -3.35306 3740 ft 261 kts 59°
2026-05-07 23:09 55.86204 -3.32591 3960 ft 256 kts 59°
2026-05-07 23:09 55.87131 -3.29886 3997 ft 255 kts 59°
2026-05-07 23:10 55.88060 -3.27180 3997 ft 255 kts 59°
2026-05-07 23:10 55.88987 -3.24489 3969 ft 255 kts 59°
2026-05-07 23:10 55.89920 -3.21791 3997 ft 256 kts 59°
2026-05-07 23:10 55.90851 -3.19094 3998 ft 255 kts 59°
2026-05-07 23:11 55.91782 -3.16408 3992 ft 254 kts 59°
2026-05-07 23:11 55.92715 -3.13723 3993 ft 255 kts 59°
2026-05-07 23:11 55.93645 -3.11022 3991 ft 255 kts 59°
2026-05-07 23:11 55.94571 -3.08333 3989 ft 254 kts 59°
2026-05-07 23:12 55.95497 -3.05646 3990 ft 254 kts 59°
2026-05-07 23:12 55.96420 -3.02955 3988 ft 254 kts 59°
2026-05-07 23:12 55.97341 -3.00263 3950 ft 254 kts 59°
2026-05-07 23:12 55.98265 -2.97565 3635 ft 252 kts 59°
2026-05-07 23:13 55.99147 -2.94984 3394 ft 242 kts 59°
2026-05-07 23:13 56.00015 -2.92437 3072 ft 238 kts 59°
2026-05-07 23:13 56.00871 -2.89917 2991 ft 237 kts 59°
2026-05-07 23:13 56.01726 -2.87401 2984 ft 237 kts 59°
2026-05-07 23:14 56.02586 -2.84875 2985 ft 238 kts 59°
2026-05-07 23:14 56.03482 -2.82386 2967 ft 239 kts 51°
2026-05-07 23:14 56.04827 -2.80700 2979 ft 237 kts 17°
2026-05-07 23:14 56.06432 -2.80505 2978 ft 230 kts 342°
2026-05-07 23:15 56.07794 -2.81796 2980 ft 219 kts 311°
2026-05-07 23:15 56.08957 -2.83587 2979 ft 223 kts 317°
2026-05-07 23:15 56.10117 -2.85344 2986 ft 216 kts 305°
2026-05-07 23:15 56.10853 -2.87582 2972 ft 201 kts 281°
2026-05-07 23:16 56.10932 -2.89968 2975 ft 193 kts 254°
2026-05-07 23:16 56.10383 -2.92121 2981 ft 191 kts 237°
2026-05-07 23:16 56.09670 -2.94144 2981 ft 192 kts 237°
2026-05-07 23:16 56.08959 -2.96178 2978 ft 193 kts 237°
2026-05-07 23:17 56.08298 -2.98043 2979 ft 192 kts 237°
2026-05-07 23:17 56.07584 -3.00066 2979 ft 191 kts 237°
2026-05-07 23:17 56.06881 -3.02093 2978 ft 192 kts 238°
2026-05-07 23:17 56.06186 -3.04140 2982 ft 193 kts 238°
2026-05-07 23:18 56.05498 -3.06200 2987 ft 193 kts 238°
2026-05-07 23:18 56.04847 -3.08161 2986 ft 171 kts 238°
2026-05-07 23:18 56.04290 -3.09833 2983 ft 142 kts 238°
2026-05-07 23:18 56.03810 -3.11261 2978 ft 132 kts 237°
2026-05-07 23:19 56.03328 -3.12682 2989 ft 132 kts 237°
2026-05-07 23:19 56.02858 -3.14064 2986 ft 132 kts 237°
2026-05-07 23:19 56.02382 -3.15467 2850 ft 132 kts 237°
2026-05-07 23:19 56.01909 -3.16866 2659 ft 131 kts 237°
2026-05-07 23:20 56.01437 -3.18263 2473 ft 131 kts 236°
2026-05-07 23:20 56.00966 -3.19653 2286 ft 131 kts 236°
2026-05-07 23:20 56.00497 -3.21037 2114 ft 130 kts 236°
2026-05-07 23:20 56.00029 -3.22421 1927 ft 130 kts 235°
2026-05-07 23:21 55.99562 -3.23799 1756 ft 129 kts 235°
2026-05-07 23:21 55.99097 -3.25172 1574 ft 129 kts 235°
2026-05-07 23:21 55.98631 -3.26546 1399 ft 129 kts 234°
2026-05-07 23:21 55.98167 -3.27913 1212 ft 129 kts 234°
2026-05-07 23:22 55.97703 -3.29279 1031 ft 128 kts 237°
2026-05-07 23:22 55.97243 -3.30638 847 ft 128 kts 236°
2026-05-07 23:22 55.96779 -3.32003 672 ft 128 kts 237°
2026-05-07 23:22 55.96324 -3.33345 491 ft 128 kts 237°
2026-05-07 23:23 55.95865 -3.34699 327 ft 127 kts 238°
2026-05-07 23:23 55.95405 -3.36055 165 ft 127 kts 236°
2026-05-07 23:23 55.94982 -3.37291 113 ft 97 kts 239°
2026-05-07 23:23 55.94747 -3.37989 114 ft 21 kts 239°
2026-05-07 23:24 55.94685 -3.38043 117 ft 7 kts 159°
2026-05-07 23:24 55.94637 -3.37995 115 ft 8 kts 148°
2026-05-07 23:24 55.94599 -3.37931 115 ft 8 kts 106°
2026-05-07 23:24 55.94612 -3.37828 116 ft 13 kts 62°
2026-05-07 23:25 55.94664 -3.37672 116 ft 15 kts 60°
2026-05-07 23:25 55.94719 -3.37503 118 ft 16 kts 59°
2026-05-07 23:25 55.94778 -3.37332 115 ft 11 kts 58°
2026-05-07 23:25 55.94822 -3.37205 118 ft 13 kts 58°
2026-05-07 23:26 55.94867 -3.37073 118 ft 14 kts 60°
2026-05-07 23:26 55.94914 -3.36928 116 ft 10 kts 59°
2026-05-07 23:26 55.94909 -3.36827 116 ft 8 kts 120°
2026-05-07 23:26 55.94904 -3.36752 119 ft 5 kts 75°
2026-05-07 23:27 55.94892 -3.36650 115 ft 3 kts 139°
2026-05-07 23:27 55.94877 -3.36632 118 ft 2 kts 146°
2026-05-07 23:27 55.94868 -3.36620 116 ft 1 kts 146°
2026-05-07 23:28 55.94864 -3.36616 116 ft 0 kts 146°